Find Starlink 35158

NORAD ID: 66381 Int'l Des: 2025-257 Owner: SPXS Country: US Constellation: starlink operational
LEOCIRCULAR

当前视图

正在加载3D地球...

About Starlink 35158

Starlink 35158 (NORAD 66381) is a starlink constellation satellite (v2 mini) launched Nov 9, 2025 by SPXS of US. It operates in LEO, CIRCULAR orbit with a mass of 575.00 kg.

即将过境

Passes for default location (London). Set your location on the main map for personalized predictions.

高度历史

Loading altitude history...

两行轨道根数

1 66381U 25257B 26264.64885553 .00013058 00000-0 39690-3 0 9996
2 66381 53.1597 24.1287 0000969 91.1503 268.9611 15.34401974 49771
Epoch: Sep 21, 2026 • Age: 16 hours

当前状态

高度 463.2 km
远地点 / 近地点 N/A
速度 7.64 km/s
星下点 23.88°N, 70.9°W
发射日期 Nov 9, 2025
运行时间 0.8 years
类型 internet

技术详情

分类 Payload
质量 575.00 kg
干质量 530.00 kg
长度 0.30 m
跨度 29.00 m
形状 ? Box + pan
制造商 SPXS
平台类型 Starlink V2MO
阶段状态 In Orbit
所有者/国家 SPXS/US

Most Searched